Information on these data can be found in provided Readme document
Contact Info: Zachary Fasnacht (zachary.fasnacht@ssaihq.com); Nickolay Krotkov (nickolay.a.krotkov@nasa.gov); Lok Lamsal (lok.lamsal@nasa.gov)

FillValue: -999.
ScaleFactor: 1e15
Units: molecules/cm^2

Date(yyyy-mm-dd),City,Country,LonCenter,LatCenter,BoundingCoordinates,Median,Q1,Q3,Mean,Baseline_Median,Baseline_Q1,Baseline_Q3,Baseline_Mean,NumGoodSamples,NumTotalSamples
2015-01-01,Gaborone,Botswana,25.9231,-24.6282,[25.4231 -25.1282 26.4231 -24.1282],1.289,0.634,1.764,1.217,0.983,0.497,1.436,0.993,213.0,567.0
2015-01-02,Gaborone,Botswana,25.9231,-24.6282,[25.4231 -25.1282 26.4231 -24.1282],1.326,0.69,1.764,1.252,1.009,0.521,1.446,1.007,188.0,559.0
2015-01-03,Gaborone,Botswana,25.9231,-24.6282,[25.4231 -25.1282 26.4231 -24.1282],1.291,0.657,1.755,1.223,1.017,0.52,1.451,1.013,218.0,576.0
2015-01-04,Gaborone,Botswana,25.9231,-24.6282,[25.4231 -25.1282 26.4231 -24.1282],1.289,0.634,1.711,1.204,1.008,0.509,1.449,1.01,227.0,570.0
2015-01-05,Gaborone,Botswana,25.9231,-24.6282,[25.4231 -25.1282 26.4231 -24.1282],1.291,0.634,1.748,1.219,1.068,0.549,1.499,1.059,244.0,573.0
2015-01-06,Gaborone,Botswana,25.9231,-24.6282,[25.4231 -25.1282 26.4231 -24.1282],1.191,0.589,1.637,1.141,1.054,0.546,1.504,1.045,241.0,580.0
2015-01-07,Gaborone,Botswana,25.9231,-24.6282,[25.4231 -25.1282 26.4231 -24.1282],1.191,0.589,1.637,1.141,1.067,0.555,1.528,1.064,241.0,559.0
2015-01-08,Gaborone,Botswana,25.9231,-24.6282,[25.4231 -25.1282 26.4231 -24.1282],1.142,0.477,1.637,1.091,1.052,0.56,1.564,1.088,207.0,565.0
2015-01-09,Gaborone,Botswana,25.9231,-24.6282,[25.4231 -25.1282 26.4231 -24.1282],1.385,0.677,1.748,1.256,1.123,0.577,1.615,1.132,243.0,555.0
2015-01-10,Gaborone,Botswana,25.9231,-24.6282,[25.4231 -25.1282 26.4231 -24.1282],1.385,0.61,1.741,1.231,1.162,0.603,1.639,1.156,221.0,522.0
2015-01-11,Gaborone,Botswana,25.9231,-24.6282,[25.4231 -25.1282 26.4231 -24.1282],1.422,0.662,1.741,1.274,1.145,0.589,1.6,1.141,199.0,516.0
2015-01-12,Gaborone,Botswana,25.9231,-24.6282,[25.4231 -25.1282 26.4231 -24.1282],1.367,0.595,1.718,1.209,1.163,0.609,1.634,1.162,207.0,527.0
2015-01-13,Gaborone,Botswana,25.9231,-24.6282,[25.4231 -25.1282 26.4231 -24.1282],1.422,0.746,1.718,1.251,1.161,0.599,1.619,1.151,203.0,526.0
2015-01-14,Gaborone,Botswana,25.9231,-24.6282,[25.4231 -25.1282 26.4231 -24.1282],1.283,0.69,1.684,1.235,1.136,0.61,1.595,1.144,223.0,515.0
2015-01-15,Gaborone,Botswana,25.9231,-24.6282,[25.4231 -25.1282 26.4231 -24.1282],1.422,0.746,1.718,1.282,1.16,0.622,1.599,1.15,221.0,525.0
2015-01-16,Gaborone,Botswana,25.9231,-24.6282,[25.4231 -25.1282 26.4231 -24.1282],1.231,0.696,1.662,1.225,1.112,0.614,1.592,1.134,240.0,505.0
2015-01-17,Gaborone,Botswana,25.9231,-24.6282,[25.4231 -25.1282 26.4231 -24.1282],1.218,0.668,1.696,1.204,1.117,0.625,1.616,1.138,229.0,516.0
2015-01-18,Gaborone,Botswana,25.9231,-24.6282,[25.4231 -25.1282 26.4231 -24.1282],1.393,0.759,1.718,1.28,1.162,0.653,1.637,1.17,223.0,511.0
2015-01-19,Gaborone,Botswana,25.9231,-24.6282,[25.4231 -25.1282 26.4231 -24.1282],1.397,0.762,1.741,1.308,1.146,0.636,1.664,1.183,249.0,526.0
2015-01-20,Gaborone,Botswana,25.9231,-24.6282,[25.4231 -25.1282 26.4231 -24.1282],1.378,0.759,1.72,1.301,1.094,0.591,1.626,1.144,221.0,519.0
2015-01-21,Gaborone,Botswana,25.9231,-24.6282,[25.4231 -25.1282 26.4231 -24.1282],1.416,0.781,1.735,1.295,1.119,0.609,1.619,1.14,207.0,523.0
2015-01-22,Gaborone,Botswana,25.9231,-24.6282,[25.4231 -25.1282 26.4231 -24.1282],1.416,0.772,1.737,1.303,1.093,0.604,1.58,1.127,210.0,531.0
2015-01-23,Gaborone,Botswana,25.9231,-24.6282,[25.4231 -25.1282 26.4231 -24.1282],1.368,0.755,1.718,1.266,1.085,0.602,1.551,1.087,230.0,510.0
2015-01-24,Gaborone,Botswana,25.9231,-24.6282,[25.4231 -25.1282 26.4231 -24.1282],1.076,0.617,1.66,1.112,0.992,0.527,1.527,1.002,194.0,515.0
2015-01-25,Gaborone,Botswana,25.9231,-24.6282,[25.4231 -25.1282 26.4231 -24.1282],0.965,0.596,1.614,1.087,0.928,0.471,1.491,0.951,216.0,556.0
2015-01-26,Gaborone,Botswana,25.9231,-24.6282,[25.4231 -25.1282 26.4231 -24.1282],0.964,0.596,1.614,1.085,0.966,0.499,1.525,0.987,212.0,572.0
2015-01-27,Gaborone,Botswana,25.9231,-24.6282,[25.4231 -25.1282 26.4231 -24.1282],1.043,0.616,1.614,1.122,0.932,0.456,1.505,0.954,208.0,566.0
2015-01-28,Gaborone,Botswana,25.9231,-24.6282,[25.4231 -25.1282 26.4231 -24.1282],1.019,0.597,1.614,1.118,0.953,0.461,1.501,0.977,219.0,578.0
2015-01-29,Gaborone,Botswana,25.9231,-24.6282,[25.4231 -25.1282 26.4231 -24.1282],1.076,0.596,1.614,1.124,0.961,0.454,1.494,0.983,217.0,579.0
2015-01-30,Gaborone,Botswana,25.9231,-24.6282,[25.4231 -25.1282 26.4231 -24.1282],1.008,0.52,1.57,1.062,0.949,0.441,1.489,0.977,229.0,565.0
2015-01-31,Gaborone,Botswana,25.9231,-24.6282,[25.4231 -25.1282 26.4231 -24.1282],1.074,0.543,1.59,1.087,0.972,0.444,1.51,0.989,215.0,575.0
2015-02-01,Gaborone,Botswana,25.9231,-24.6282,[25.4231 -25.1282 26.4231 -24.1282],0.964,0.537,1.563,1.054,0.886,0.41,1.478,0.941,231.0,557.0
2015-02-02,Gaborone,Botswana,25.9231,-24.6282,[25.4231 -25.1282 26.4231 -24.1282],0.816,0.433,1.368,0.935,0.876,0.395,1.431,0.908,203.0,567.0
2015-02-03,Gaborone,Botswana,25.9231,-24.6282,[25.4231 -25.1282 26.4231 -24.1282],1.015,0.572,1.456,1.051,0.911,0.402,1.436,0.924,189.0,562.0
2015-02-04,Gaborone,Botswana,25.9231,-24.6282,[25.4231 -25.1282 26.4231 -24.1282],1.019,0.543,1.483,1.079,0.928,0.413,1.455,0.937,219.0,579.0
2015-02-05,Gaborone,Botswana,25.9231,-24.6282,[25.4231 -25.1282 26.4231 -24.1282],1.02,0.583,1.609,1.123,0.898,0.408,1.479,0.929,234.0,571.0
2015-02-06,Gaborone,Botswana,25.9231,-24.6282,[25.4231 -25.1282 26.4231 -24.1282],1.019,0.543,1.57,1.076,0.942,0.386,1.504,0.944,254.0,573.0
2015-02-07,Gaborone,Botswana,25.9231,-24.6282,[25.4231 -25.1282 26.4231 -24.1282],1.019,0.578,1.614,1.12,0.925,0.375,1.508,0.957,258.0,583.0
2015-02-08,Gaborone,Botswana,25.9231,-24.6282,[25.4231 -25.1282 26.4231 -24.1282],0.977,0.505,1.573,1.066,0.971,0.406,1.528,0.998,278.0,563.0
2015-02-09,Gaborone,Botswana,25.9231,-24.6282,[25.4231 -25.1282 26.4231 -24.1282],1.019,0.537,1.609,1.082,0.992,0.432,1.581,1.023,256.0,570.0
2015-02-10,Gaborone,Botswana,25.9231,-24.6282,[25.4231 -25.1282 26.4231 -24.1282],1.081,0.572,1.615,1.109,0.972,0.434,1.566,1.028,293.0,562.0
2015-02-11,Gaborone,Botswana,25.9231,-24.6282,[25.4231 -25.1282 26.4231 -24.1282],1.102,0.558,1.643,1.109,1.009,0.445,1.573,1.028,268.0,527.0
2015-02-12,Gaborone,Botswana,25.9231,-24.6282,[25.4231 -25.1282 26.4231 -24.1282],1.102,0.558,1.627,1.106,0.987,0.43,1.573,1.011,241.0,518.0
2015-02-13,Gaborone,Botswana,25.9231,-24.6282,[25.4231 -25.1282 26.4231 -24.1282],1.019,0.541,1.627,1.08,0.981,0.416,1.591,1.009,246.0,526.0
2015-02-14,Gaborone,Botswana,25.9231,-24.6282,[25.4231 -25.1282 26.4231 -24.1282],1.118,0.578,1.678,1.141,0.98,0.397,1.545,1.011,227.0,528.0
2015-02-15,Gaborone,Botswana,25.9231,-24.6282,[25.4231 -25.1282 26.4231 -24.1282],1.118,0.567,1.643,1.136,0.962,0.407,1.528,1.0,247.0,517.0
2015-02-16,Gaborone,Botswana,25.9231,-24.6282,[25.4231 -25.1282 26.4231 -24.1282],1.226,0.558,1.709,1.153,0.987,0.448,1.554,1.016,249.0,525.0
2015-02-17,Gaborone,Botswana,25.9231,-24.6282,[25.4231 -25.1282 26.4231 -24.1282],1.131,0.537,1.661,1.111,0.936,0.398,1.522,0.98,275.0,505.0
2015-02-18,Gaborone,Botswana,25.9231,-24.6282,[25.4231 -25.1282 26.4231 -24.1282],0.954,0.418,1.614,1.005,0.879,0.334,1.489,0.942,254.0,516.0
2015-02-19,Gaborone,Botswana,25.9231,-24.6282,[25.4231 -25.1282 26.4231 -24.1282],0.929,0.418,1.584,0.972,0.883,0.358,1.466,0.931,225.0,508.0
2015-02-20,Gaborone,Botswana,25.9231,-24.6282,[25.4231 -25.1282 26.4231 -24.1282],0.839,0.37,1.524,0.89,0.865,0.343,1.445,0.913,237.0,524.0
2015-02-21,Gaborone,Botswana,25.9231,-24.6282,[25.4231 -25.1282 26.4231 -24.1282],0.892,0.378,1.537,0.921,0.827,0.333,1.319,0.86,215.0,518.0
2015-02-22,Gaborone,Botswana,25.9231,-24.6282,[25.4231 -25.1282 26.4231 -24.1282],0.835,0.359,1.519,0.842,0.835,0.363,1.351,0.867,211.0,520.0
2015-02-23,Gaborone,Botswana,25.9231,-24.6282,[25.4231 -25.1282 26.4231 -24.1282],0.9,0.419,1.537,0.912,0.87,0.367,1.362,0.905,200.0,530.0
2015-02-24,Gaborone,Botswana,25.9231,-24.6282,[25.4231 -25.1282 26.4231 -24.1282],0.947,0.427,1.524,0.923,0.885,0.382,1.367,0.906,218.0,509.0
2015-02-25,Gaborone,Botswana,25.9231,-24.6282,[25.4231 -25.1282 26.4231 -24.1282],0.787,0.27,1.434,0.792,0.913,0.374,1.357,0.896,181.0,513.0
2015-02-26,Gaborone,Botswana,25.9231,-24.6282,[25.4231 -25.1282 26.4231 -24.1282],1.028,0.514,1.458,0.951,0.947,0.431,1.359,0.923,212.0,554.0
2015-02-27,Gaborone,Botswana,25.9231,-24.6282,[25.4231 -25.1282 26.4231 -24.1282],1.028,0.514,1.458,0.955,0.959,0.454,1.409,0.949,208.0,573.0
2015-02-28,Gaborone,Botswana,25.9231,-24.6282,[25.4231 -25.1282 26.4231 -24.1282],1.127,0.533,1.524,0.999,0.974,0.458,1.432,0.965,189.0,569.0
2015-03-01,Gaborone,Botswana,25.9231,-24.6282,[25.4231 -25.1282 26.4231 -24.1282],1.072,0.527,1.524,0.97,0.985,0.504,1.474,0.98,207.0,580.0
2015-03-02,Gaborone,Botswana,25.9231,-24.6282,[25.4231 -25.1282 26.4231 -24.1282],1.146,0.533,1.524,0.984,0.993,0.511,1.471,0.98,198.0,582.0
2015-03-03,Gaborone,Botswana,25.9231,-24.6282,[25.4231 -25.1282 26.4231 -24.1282],1.128,0.527,1.524,0.984,0.95,0.447,1.431,0.96,203.0,572.0
2015-03-04,Gaborone,Botswana,25.9231,-24.6282,[25.4231 -25.1282 26.4231 -24.1282],1.158,0.6,1.555,1.064,0.959,0.463,1.447,0.985,191.0,582.0
2015-03-05,Gaborone,Botswana,25.9231,-24.6282,[25.4231 -25.1282 26.4231 -24.1282],1.146,0.541,1.53,1.013,0.946,0.434,1.443,0.965,208.0,561.0
2015-03-06,Gaborone,Botswana,25.9231,-24.6282,[25.4231 -25.1282 26.4231 -24.1282],1.146,0.541,1.53,1.013,0.905,0.418,1.42,0.948,207.0,571.0
2015-03-07,Gaborone,Botswana,25.9231,-24.6282,[25.4231 -25.1282 26.4231 -24.1282],1.028,0.6,1.448,1.023,0.882,0.43,1.394,0.942,204.0,563.0
2015-03-08,Gaborone,Botswana,25.9231,-24.6282,[25.4231 -25.1282 26.4231 -24.1282],0.983,0.595,1.442,0.989,0.881,0.427,1.394,0.933,235.0,579.0
2015-03-09,Gaborone,Botswana,25.9231,-24.6282,[25.4231 -25.1282 26.4231 -24.1282],0.983,0.595,1.442,0.989,0.862,0.418,1.38,0.911,228.0,572.0
2015-03-10,Gaborone,Botswana,25.9231,-24.6282,[25.4231 -25.1282 26.4231 -24.1282],0.963,0.536,1.399,0.939,0.832,0.357,1.349,0.869,247.0,575.0
2015-03-11,Gaborone,Botswana,25.9231,-24.6282,[25.4231 -25.1282 26.4231 -24.1282],0.955,0.536,1.34,0.927,0.833,0.373,1.328,0.858,232.0,583.0
2015-03-12,Gaborone,Botswana,25.9231,-24.6282,[25.4231 -25.1282 26.4231 -24.1282],0.963,0.536,1.34,0.919,0.838,0.36,1.268,0.838,250.0,562.0
2015-03-13,Gaborone,Botswana,25.9231,-24.6282,[25.4231 -25.1282 26.4231 -24.1282],0.843,0.358,1.214,0.8,0.812,0.299,1.286,0.815,219.0,569.0
2015-03-14,Gaborone,Botswana,25.9231,-24.6282,[25.4231 -25.1282 26.4231 -24.1282],0.864,0.389,1.243,0.824,0.805,0.298,1.254,0.81,224.0,560.0
2015-03-15,Gaborone,Botswana,25.9231,-24.6282,[25.4231 -25.1282 26.4231 -24.1282],0.884,0.358,1.236,0.821,0.823,0.319,1.288,0.84,217.0,526.0
2015-03-16,Gaborone,Botswana,25.9231,-24.6282,[25.4231 -25.1282 26.4231 -24.1282],0.843,0.352,1.213,0.806,0.81,0.309,1.279,0.849,204.0,517.0
2015-03-17,Gaborone,Botswana,25.9231,-24.6282,[25.4231 -25.1282 26.4231 -24.1282],0.796,0.35,1.204,0.775,0.791,0.274,1.261,0.835,188.0,525.0
2015-03-18,Gaborone,Botswana,25.9231,-24.6282,[25.4231 -25.1282 26.4231 -24.1282],0.796,0.35,1.204,0.771,0.821,0.333,1.338,0.864,165.0,525.0
2015-03-19,Gaborone,Botswana,25.9231,-24.6282,[25.4231 -25.1282 26.4231 -24.1282],0.843,0.352,1.297,0.808,0.817,0.315,1.297,0.847,174.0,516.0
2015-03-20,Gaborone,Botswana,25.9231,-24.6282,[25.4231 -25.1282 26.4231 -24.1282],0.936,0.451,1.391,0.848,0.837,0.374,1.312,0.865,169.0,525.0
2015-03-21,Gaborone,Botswana,25.9231,-24.6282,[25.4231 -25.1282 26.4231 -24.1282],0.955,0.469,1.427,0.878,0.845,0.351,1.357,0.877,176.0,507.0
2015-03-22,Gaborone,Botswana,25.9231,-24.6282,[25.4231 -25.1282 26.4231 -24.1282],1.05,0.319,1.538,0.858,0.871,0.358,1.401,0.9,150.0,518.0
2015-03-23,Gaborone,Botswana,25.9231,-24.6282,[25.4231 -25.1282 26.4231 -24.1282],1.188,0.475,1.739,1.011,0.887,0.413,1.417,0.935,124.0,507.0
2015-03-24,Gaborone,Botswana,25.9231,-24.6282,[25.4231 -25.1282 26.4231 -24.1282],1.204,0.605,1.829,1.102,0.873,0.399,1.417,0.923,124.0,520.0
2015-03-25,Gaborone,Botswana,25.9231,-24.6282,[25.4231 -25.1282 26.4231 -24.1282],1.298,0.638,1.845,1.21,0.879,0.39,1.416,0.934,103.0,511.0
2015-03-26,Gaborone,Botswana,25.9231,-24.6282,[25.4231 -25.1282 26.4231 -24.1282],1.243,0.475,1.827,1.074,0.86,0.346,1.4,0.888,127.0,512.0
2015-03-27,Gaborone,Botswana,25.9231,-24.6282,[25.4231 -25.1282 26.4231 -24.1282],1.298,0.27,1.845,1.055,0.83,0.325,1.377,0.872,118.0,521.0
2015-03-28,Gaborone,Botswana,25.9231,-24.6282,[25.4231 -25.1282 26.4231 -24.1282],1.298,0.292,1.884,1.077,0.883,0.332,1.4,0.9,124.0,496.0
2015-03-29,Gaborone,Botswana,25.9231,-24.6282,[25.4231 -25.1282 26.4231 -24.1282],1.298,0.27,1.845,1.041,0.85,0.321,1.391,0.887,119.0,498.0
2015-03-30,Gaborone,Botswana,25.9231,-24.6282,[25.4231 -25.1282 26.4231 -24.1282],1.274,0.27,1.829,1.024,0.842,0.321,1.399,0.857,126.0,541.0
2015-03-31,Gaborone,Botswana,25.9231,-24.6282,[25.4231 -25.1282 26.4231 -24.1282],1.35,0.371,1.853,1.089,0.834,0.341,1.394,0.848,117.0,560.0
2015-04-01,Gaborone,Botswana,25.9231,-24.6282,[25.4231 -25.1282 26.4231 -24.1282],1.2,0.219,1.826,0.986,0.818,0.301,1.404,0.837,125.0,548.0
2015-04-02,Gaborone,Botswana,25.9231,-24.6282,[25.4231 -25.1282 26.4231 -24.1282],1.072,0.176,1.729,0.963,0.801,0.278,1.392,0.822,158.0,555.0
2015-04-03,Gaborone,Botswana,25.9231,-24.6282,[25.4231 -25.1282 26.4231 -24.1282],0.729,0.032,1.477,0.775,0.769,0.243,1.37,0.808,151.0,554.0
2015-04-04,Gaborone,Botswana,25.9231,-24.6282,[25.4231 -25.1282 26.4231 -24.1282],0.652,0.017,1.471,0.771,0.741,0.258,1.376,0.86,139.0,546.0
2015-04-05,Gaborone,Botswana,25.9231,-24.6282,[25.4231 -25.1282 26.4231 -24.1282],0.6,-0.014,1.471,0.729,0.746,0.234,1.382,0.849,149.0,555.0
2015-04-06,Gaborone,Botswana,25.9231,-24.6282,[25.4231 -25.1282 26.4231 -24.1282],0.6,0.042,1.477,0.742,0.688,0.196,1.36,0.82,172.0,538.0
2015-04-07,Gaborone,Botswana,25.9231,-24.6282,[25.4231 -25.1282 26.4231 -24.1282],0.511,-0.014,1.446,0.646,0.704,0.204,1.348,0.815,166.0,551.0
2015-04-08,Gaborone,Botswana,25.9231,-24.6282,[25.4231 -25.1282 26.4231 -24.1282],0.649,0.176,1.446,0.755,0.729,0.21,1.383,0.849,183.0,545.0
2015-04-09,Gaborone,Botswana,25.9231,-24.6282,[25.4231 -25.1282 26.4231 -24.1282],0.649,0.176,1.427,0.735,0.757,0.234,1.379,0.854,180.0,559.0
2015-04-10,Gaborone,Botswana,25.9231,-24.6282,[25.4231 -25.1282 26.4231 -24.1282],0.691,0.259,1.442,0.815,0.788,0.301,1.383,0.92,169.0,553.0
2015-04-11,Gaborone,Botswana,25.9231,-24.6282,[25.4231 -25.1282 26.4231 -24.1282],0.766,0.259,1.457,0.851,0.777,0.275,1.339,0.888,163.0,557.0
2015-04-12,Gaborone,Botswana,25.9231,-24.6282,[25.4231 -25.1282 26.4231 -24.1282],0.805,0.259,1.462,0.852,0.744,0.221,1.294,0.845,178.0,568.0
2015-04-13,Gaborone,Botswana,25.9231,-24.6282,[25.4231 -25.1282 26.4231 -24.1282],0.691,0.237,1.459,0.827,0.702,0.189,1.285,0.812,198.0,549.0
2015-04-14,Gaborone,Botswana,25.9231,-24.6282,[25.4231 -25.1282 26.4231 -24.1282],0.701,0.237,1.459,0.826,0.658,0.153,1.239,0.76,191.0,554.0
2015-04-15,Gaborone,Botswana,25.9231,-24.6282,[25.4231 -25.1282 26.4231 -24.1282],0.691,0.249,1.395,0.801,0.659,0.138,1.241,0.754,223.0,545.0
2015-04-16,Gaborone,Botswana,25.9231,-24.6282,[25.4231 -25.1282 26.4231 -24.1282],0.77,0.259,1.418,0.829,0.712,0.186,1.291,0.797,215.0,518.0
2015-04-17,Gaborone,Botswana,25.9231,-24.6282,[25.4231 -25.1282 26.4231 -24.1282],0.687,0.259,1.362,0.81,0.682,0.184,1.295,0.803,192.0,517.0
2015-04-18,Gaborone,Botswana,25.9231,-24.6282,[25.4231 -25.1282 26.4231 -24.1282],0.77,0.259,1.365,0.83,0.781,0.211,1.4,0.908,206.0,528.0
2015-04-19,Gaborone,Botswana,25.9231,-24.6282,[25.4231 -25.1282 26.4231 -24.1282],0.691,0.257,1.344,0.801,0.764,0.225,1.405,0.874,221.0,527.0
2015-04-20,Gaborone,Botswana,25.9231,-24.6282,[25.4231 -25.1282 26.4231 -24.1282],0.691,0.258,1.344,0.797,0.757,0.217,1.387,0.863,214.0,516.0
2015-04-21,Gaborone,Botswana,25.9231,-24.6282,[25.4231 -25.1282 26.4231 -24.1282],0.77,0.257,1.344,0.809,0.773,0.215,1.385,0.857,208.0,526.0
2015-04-22,Gaborone,Botswana,25.9231,-24.6282,[25.4231 -25.1282 26.4231 -24.1282],0.77,0.257,1.342,0.807,0.762,0.205,1.387,0.857,214.0,510.0
2015-04-23,Gaborone,Botswana,25.9231,-24.6282,[25.4231 -25.1282 26.4231 -24.1282],0.625,0.212,1.274,0.714,0.769,0.209,1.381,0.848,184.0,522.0
2015-04-24,Gaborone,Botswana,25.9231,-24.6282,[25.4231 -25.1282 26.4231 -24.1282],0.634,0.136,1.267,0.674,0.77,0.187,1.384,0.839,218.0,522.0
2015-04-25,Gaborone,Botswana,25.9231,-24.6282,[25.4231 -25.1282 26.4231 -24.1282],0.603,0.107,1.256,0.637,0.729,0.164,1.379,0.82,237.0,538.0
2015-04-26,Gaborone,Botswana,25.9231,-24.6282,[25.4231 -25.1282 26.4231 -24.1282],0.582,0.12,1.256,0.638,0.769,0.199,1.415,0.867,252.0,528.0
2015-04-27,Gaborone,Botswana,25.9231,-24.6282,[25.4231 -25.1282 26.4231 -24.1282],0.542,0.107,1.041,0.586,0.768,0.184,1.366,0.844,257.0,527.0
2015-04-28,Gaborone,Botswana,25.9231,-24.6282,[25.4231 -25.1282 26.4231 -24.1282],0.542,0.114,1.037,0.57,0.818,0.209,1.402,0.875,265.0,536.0
2015-04-29,Gaborone,Botswana,25.9231,-24.6282,[25.4231 -25.1282 26.4231 -24.1282],0.58,0.118,1.041,0.579,0.831,0.264,1.397,0.898,290.0,519.0
2015-04-30,Gaborone,Botswana,25.9231,-24.6282,[25.4231 -25.1282 26.4231 -24.1282],0.558,0.04,1.097,0.544,0.889,0.301,1.44,0.927,258.0,525.0
2015-05-01,Gaborone,Botswana,25.9231,-24.6282,[25.4231 -25.1282 26.4231 -24.1282],0.657,0.135,0.984,0.587,0.856,0.263,1.383,0.896,292.0,563.0
2015-05-02,Gaborone,Botswana,25.9231,-24.6282,[25.4231 -25.1282 26.4231 -24.1282],0.657,0.148,0.989,0.593,0.855,0.279,1.378,0.897,282.0,576.0
2015-05-03,Gaborone,Botswana,25.9231,-24.6282,[25.4231 -25.1282 26.4231 -24.1282],0.657,0.136,0.984,0.597,0.825,0.258,1.32,0.832,269.0,572.0
2015-05-04,Gaborone,Botswana,25.9231,-24.6282,[25.4231 -25.1282 26.4231 -24.1282],0.694,0.227,1.087,0.639,0.771,0.244,1.328,0.82,283.0,582.0
2015-05-05,Gaborone,Botswana,25.9231,-24.6282,[25.4231 -25.1282 26.4231 -24.1282],0.667,0.137,0.984,0.602,0.827,0.263,1.337,0.844,291.0,583.0
2015-05-06,Gaborone,Botswana,25.9231,-24.6282,[25.4231 -25.1282 26.4231 -24.1282],0.667,0.159,0.984,0.6,0.86,0.298,1.34,0.901,292.0,569.0
2015-05-07,Gaborone,Botswana,25.9231,-24.6282,[25.4231 -25.1282 26.4231 -24.1282],0.657,0.148,0.984,0.589,0.86,0.292,1.355,0.902,304.0,576.0
2015-05-08,Gaborone,Botswana,25.9231,-24.6282,[25.4231 -25.1282 26.4231 -24.1282],0.641,0.08,0.984,0.551,0.815,0.27,1.343,0.883,328.0,560.0
2015-05-09,Gaborone,Botswana,25.9231,-24.6282,[25.4231 -25.1282 26.4231 -24.1282],0.655,0.114,0.978,0.56,0.931,0.333,1.497,1.075,290.0,566.0
2015-05-10,Gaborone,Botswana,25.9231,-24.6282,[25.4231 -25.1282 26.4231 -24.1282],0.621,0.148,0.978,0.598,0.933,0.347,1.505,1.079,294.0,562.0
2015-05-11,Gaborone,Botswana,25.9231,-24.6282,[25.4231 -25.1282 26.4231 -24.1282],0.621,0.134,0.984,0.593,0.976,0.347,1.53,1.098,312.0,580.0
2015-05-12,Gaborone,Botswana,25.9231,-24.6282,[25.4231 -25.1282 26.4231 -24.1282],0.634,0.134,0.984,0.603,1.04,0.391,1.584,1.188,305.0,575.0
2015-05-13,Gaborone,Botswana,25.9231,-24.6282,[25.4231 -25.1282 26.4231 -24.1282],0.657,0.173,1.119,0.663,1.051,0.383,1.661,1.202,304.0,572.0
2015-05-14,Gaborone,Botswana,25.9231,-24.6282,[25.4231 -25.1282 26.4231 -24.1282],0.653,0.203,1.115,0.67,1.033,0.386,1.679,1.206,307.0,576.0
2015-05-15,Gaborone,Botswana,25.9231,-24.6282,[25.4231 -25.1282 26.4231 -24.1282],0.69,0.227,1.363,1.463,1.089,0.413,1.778,1.418,332.0,560.0
2015-05-16,Gaborone,Botswana,25.9231,-24.6282,[25.4231 -25.1282 26.4231 -24.1282],0.649,0.134,1.505,1.628,1.112,0.435,1.877,1.471,298.0,568.0
2015-05-17,Gaborone,Botswana,25.9231,-24.6282,[25.4231 -25.1282 26.4231 -24.1282],0.718,0.194,1.547,1.529,1.121,0.433,1.897,1.509,332.0,559.0
2015-05-18,Gaborone,Botswana,25.9231,-24.6282,[25.4231 -25.1282 26.4231 -24.1282],0.722,0.203,1.547,1.561,1.054,0.396,1.827,1.458,315.0,522.0
2015-05-19,Gaborone,Botswana,25.9231,-24.6282,[25.4231 -25.1282 26.4231 -24.1282],0.734,0.203,1.547,1.52,1.009,0.38,1.835,1.448,314.0,519.0
2015-05-20,Gaborone,Botswana,25.9231,-24.6282,[25.4231 -25.1282 26.4231 -24.1282],0.761,0.222,1.579,1.576,0.983,0.326,1.855,1.433,325.0,529.0
2015-05-21,Gaborone,Botswana,25.9231,-24.6282,[25.4231 -25.1282 26.4231 -24.1282],0.761,0.229,1.591,1.578,0.982,0.321,1.862,1.422,326.0,531.0
2015-05-22,Gaborone,Botswana,25.9231,-24.6282,[25.4231 -25.1282 26.4231 -24.1282],0.76,0.203,1.579,1.53,0.98,0.331,1.889,1.447,327.0,520.0
2015-05-23,Gaborone,Botswana,25.9231,-24.6282,[25.4231 -25.1282 26.4231 -24.1282],0.815,0.243,1.622,1.625,0.979,0.336,1.897,1.484,321.0,526.0
2015-05-24,Gaborone,Botswana,25.9231,-24.6282,[25.4231 -25.1282 26.4231 -24.1282],0.76,0.243,1.579,1.544,0.886,0.302,1.681,1.301,344.0,508.0
2015-05-25,Gaborone,Botswana,25.9231,-24.6282,[25.4231 -25.1282 26.4231 -24.1282],0.862,0.243,1.579,1.712,0.884,0.295,1.679,1.292,305.0,518.0
2015-05-26,Gaborone,Botswana,25.9231,-24.6282,[25.4231 -25.1282 26.4231 -24.1282],0.954,0.368,1.579,1.643,0.917,0.306,1.679,1.268,305.0,515.0
2015-05-27,Gaborone,Botswana,25.9231,-24.6282,[25.4231 -25.1282 26.4231 -24.1282],1.004,0.461,1.689,1.746,0.897,0.323,1.662,1.239,321.0,532.0
2015-05-28,Gaborone,Botswana,25.9231,-24.6282,[25.4231 -25.1282 26.4231 -24.1282],0.979,0.37,1.638,1.69,0.911,0.31,1.663,1.238,313.0,529.0
2015-05-29,Gaborone,Botswana,25.9231,-24.6282,[25.4231 -25.1282 26.4231 -24.1282],0.979,0.36,1.633,1.672,0.898,0.317,1.663,1.239,311.0,529.0
2015-05-30,Gaborone,Botswana,25.9231,-24.6282,[25.4231 -25.1282 26.4231 -24.1282],0.775,0.243,1.421,0.847,0.793,0.258,1.517,0.975,313.0,531.0
2015-05-31,Gaborone,Botswana,25.9231,-24.6282,[25.4231 -25.1282 26.4231 -24.1282],0.74,0.202,1.381,0.816,0.757,0.232,1.479,0.906,337.0,513.0
2015-06-01,Gaborone,Botswana,25.9231,-24.6282,[25.4231 -25.1282 26.4231 -24.1282],0.691,0.188,1.301,0.755,0.721,0.198,1.434,0.821,303.0,520.0
2015-06-02,Gaborone,Botswana,25.9231,-24.6282,[25.4231 -25.1282 26.4231 -24.1282],0.862,0.251,1.671,0.987,0.843,0.254,1.576,0.951,337.0,560.0
2015-06-03,Gaborone,Botswana,25.9231,-24.6282,[25.4231 -25.1282 26.4231 -24.1282],0.862,0.261,1.724,1.007,0.873,0.278,1.598,0.976,309.0,574.0
2015-06-04,Gaborone,Botswana,25.9231,-24.6282,[25.4231 -25.1282 26.4231 -24.1282],0.775,0.235,1.643,0.955,0.91,0.334,1.597,1.049,290.0,570.0
2015-06-05,Gaborone,Botswana,25.9231,-24.6282,[25.4231 -25.1282 26.4231 -24.1282],0.813,0.225,1.681,0.99,0.859,0.309,1.561,1.02,299.0,580.0
2015-06-06,Gaborone,Botswana,25.9231,-24.6282,[25.4231 -25.1282 26.4231 -24.1282],0.862,0.339,1.681,1.041,0.761,0.254,1.449,0.942,301.0,579.0
2015-06-07,Gaborone,Botswana,25.9231,-24.6282,[25.4231 -25.1282 26.4231 -24.1282],0.871,0.339,1.671,1.046,0.741,0.231,1.413,0.906,303.0,568.0
2015-06-08,Gaborone,Botswana,25.9231,-24.6282,[25.4231 -25.1282 26.4231 -24.1282],0.962,0.36,1.734,1.085,0.784,0.259,1.441,0.937,297.0,576.0
2015-06-09,Gaborone,Botswana,25.9231,-24.6282,[25.4231 -25.1282 26.4231 -24.1282],0.913,0.339,1.665,1.04,0.821,0.265,1.449,0.96,321.0,556.0
2015-06-10,Gaborone,Botswana,25.9231,-24.6282,[25.4231 -25.1282 26.4231 -24.1282],0.881,0.244,1.665,1.037,0.833,0.277,1.453,0.974,285.0,562.0
2015-06-11,Gaborone,Botswana,25.9231,-24.6282,[25.4231 -25.1282 26.4231 -24.1282],0.989,0.339,1.768,1.111,0.873,0.326,1.517,1.009,284.0,558.0
2015-06-12,Gaborone,Botswana,25.9231,-24.6282,[25.4231 -25.1282 26.4231 -24.1282],0.998,0.425,1.832,1.17,0.828,0.332,1.48,0.986,300.0,576.0
2015-06-13,Gaborone,Botswana,25.9231,-24.6282,[25.4231 -25.1282 26.4231 -24.1282],1.129,0.531,1.946,1.268,0.939,0.367,1.659,1.137,292.0,570.0
2015-06-14,Gaborone,Botswana,25.9231,-24.6282,[25.4231 -25.1282 26.4231 -24.1282],1.152,0.547,1.952,1.308,0.955,0.41,1.695,1.162,292.0,572.0
2015-06-15,Gaborone,Botswana,25.9231,-24.6282,[25.4231 -25.1282 26.4231 -24.1282],1.381,0.659,2.152,1.479,1.033,0.449,1.754,1.228,294.0,577.0